• In Uzbekistan
  • List of Countries
  • For 7 days
  • Water Temperature
  • Satellite Maps
  • Weather Map
  • Weather Widgets
  • user-avatar
    Login

    Hourly Weather Yeghegnadzor

    Today, 4 December, Sunday

    Time Temperature Precipitation Wind Pressure Humidity
    00:00 0°C° 0.1 mm 3 mps 655 mmHg 79%
    01:00 0°C° 0.1 mm 3 mps 655 mmHg 79%
    02:00 0°C° 0.1 mm 3 mps 655 mmHg 80%
    03:00 0°C° 0 mm 3 mps 655 mmHg 80%
    04:00 0°C° 0.1 mm 3 mps 655 mmHg 81%
    05:00 0°C° 0.1 mm 3 mps 655 mmHg 82%
    06:00 +1°C° 0.1 mm 2 mps 655 mmHg 83%
    07:00 0°C° 0.1 mm 3 mps 655 mmHg 81%
    08:00 +1°C° 0.1 mm 3 mps 656 mmHg 79%
    09:00 +2°C° 0 mm 3 mps 655 mmHg 77%
    10:00 +2°C° 0.2 mm 3 mps 655 mmHg 75%
    11:00 +3°C° 0.2 mm 3 mps 655 mmHg 73%
    12:00 +4°C° 0.2 mm 3 mps 655 mmHg 72%
    13:00 +4°C° 0.1 mm 3 mps 655 mmHg 72%
    14:00 +4°C° 0.1 mm 3 mps 655 mmHg 72%
    15:00 +5°C° 0.1 mm 2 mps 654 mmHg 72%
    16:00 +4°C° 0.1 mm 2 mps 655 mmHg 75%
    17:00 +3°C° 0.1 mm 2 mps 655 mmHg 78%
    18:00 +2°C° 0.1 mm 2 mps 655 mmHg 81%
    19:00 +2°C° 0.1 mm 2 mps 655 mmHg 81%
    20:00 +2°C° 0.1 mm 2 mps 655 mmHg 81%
    21:00 +2°C° 0.1 mm 2 mps 655 mmHg 81%
    22:00 +2°C° 0 mm 2 mps 655 mmHg 81%
    23:00 +2°C° 0 mm 2 mps 655 mmHg 81%

    Tomorrow, 5 December, Monday

    Time Temperature Precipitation Wind Pressure Humidity
    00:00 +1°C° 0 mm 2 mps 655 mmHg 81%
    01:00 +1°C° 0 mm 2 mps 655 mmHg 82%
    02:00 +1°C° 0 mm 2 mps 654 mmHg 82%
    03:00 +1°C° 0 mm 2 mps 654 mmHg 82%
    04:00 +1°C° 0 mm 2 mps 654 mmHg 82%
    05:00 +1°C° 0 mm 2 mps 654 mmHg 82%
    06:00 +1°C° 0 mm 2 mps 654 mmHg 82%
    07:00 +1°C° 0.1 mm 2 mps 654 mmHg 79%
    08:00 +3°C° 0.1 mm 1 mps 654 mmHg 77%
    09:00 +4°C° 0.1 mm 1 mps 654 mmHg 75%
    10:00 +5°C° 0.2 mm 1 mps 654 mmHg 73%
    11:00 +4°C° 0.2 mm 2 mps 654 mmHg 71%
    12:00 +5°C° 0.2 mm 2 mps 653 mmHg 69%
    13:00 +5°C° 0.3 mm 2 mps 653 mmHg 71%
    14:00 +5°C° 0.3 mm 1 mps 652 mmHg 73%
    15:00 +5°C° 0.3 mm 1 mps 652 mmHg 75%
    16:00 +5°C° 0.4 mm 1 mps 652 mmHg 78%
    17:00 +4°C° 0.4 mm 1 mps 652 mmHg 81%
    18:00 +3°C° 0.4 mm 1 mps 652 mmHg 84%
    19:00 +3°C° 0.6 mm 1 mps 652 mmHg 84%
    20:00 +3°C° 0.6 mm 1 mps 652 mmHg 84%
    21:00 +3°C° 0.6 mm 1 mps 652 mmHg 84%
    22:00 +3°C° 0.6 mm 1 mps 652 mmHg 85%
    23:00 +3°C° 0.6 mm 1 mps 652 mmHg 87%

    Day after tomorrow, 6 December, Tuesday

    Time Temperature Precipitation Wind Pressure Humidity
    00:00 +2°C° 0.6 mm 1 mps 652 mmHg 88%
    01:00 +2°C° 0.5 mm 1 mps 652 mmHg 88%
    02:00 +2°C° 0.5 mm 1 mps 653 mmHg 89%
    03:00 +1°C° 0.5 mm 1 mps 653 mmHg 89%
    04:00 +1°C° 0.4 mm 1 mps 653 mmHg 88%
    05:00 -2°C° 0.4 mm 2 mps 653 mmHg 86%
    06:00 -2°C° 0.4 mm 2 mps 653 mmHg 85%
    07:00 -3°C° 0.3 mm 2 mps 654 mmHg 83%
    08:00 -3°C° 0.3 mm 2 mps 655 mmHg 81%
    09:00 -3°C° 0.3 mm 2 mps 655 mmHg 79%
    10:00 -3°C° 0.3 mm 2 mps 655 mmHg 77%
    11:00 -2°C° 0.3 mm 2 mps 656 mmHg 75%
    12:00 -2°C° 0.3 mm 2 mps 656 mmHg 73%
    13:00 -2°C° 0.1 mm 2 mps 656 mmHg 73%
    14:00 -2°C° 0.1 mm 2 mps 656 mmHg 73%
    15:00 -1°C° 0.1 mm 1 mps 655 mmHg 73%
    16:00 -3°C° 0 mm 1 mps 655 mmHg 76%
    17:00 -7°C° 0 mm 1 mps 654 mmHg 79%
    18:00 -10°C° 0 mm 1 mps 653 mmHg 82%
    19:00 -9°C° 0 mm 1 mps 654 mmHg 81%
    20:00 -8°C° 0 mm 1 mps 654 mmHg 80%
    21:00 -7°C° 0 mm 1 mps 655 mmHg 79%
    22:00 -8°C° 0 mm 1 mps 655 mmHg 78%
    23:00 -8°C° 0 mm 1 mps 654 mmHg 77%

    7 December, Wednesday

    Time Temperature Precipitation Wind Pressure Humidity
    00:00 -8°C° 0 mm 1 mps 654 mmHg 77%
    01:00 -8°C° 0 mm 1 mps 654 mmHg 76%
    02:00 -8°C° 0 mm 1 mps 654 mmHg 75%
    03:00 -8°C° 0 mm 1 mps 653 mmHg 74%
    04:00 -8°C° 0 mm 1 mps 653 mmHg 73%
    05:00 -8°C° 0 mm 1 mps 653 mmHg 72%
    06:00 -8°C° 0 mm 1 mps 653 mmHg 71%
    07:00 -6°C° 0 mm 1 mps 653 mmHg 70%
    08:00 -4°C° 0 mm 1 mps 654 mmHg 68%
    09:00 -2°C° 0 mm 1 mps 654 mmHg 66%
    10:00 -1°C° 0 mm 1 mps 654 mmHg 66%
    11:00 -1°C° 0 mm 2 mps 653 mmHg 66%
    12:00 +1°C° 0 mm 2 mps 653 mmHg 65%
    13:00 +1°C° 0 mm 2 mps 653 mmHg 67%
    14:00 +1°C° 0 mm 1 mps 652 mmHg 68%
    15:00 +1°C° 0 mm 1 mps 652 mmHg 70%
    16:00 -1°C° 0 mm 1 mps 651 mmHg 70%
    17:00 -5°C° 0 mm 2 mps 651 mmHg 71%
    18:00 -7°C° 0 mm 2 mps 650 mmHg 71%
    19:00 -7°C° 0 mm 2 mps 651 mmHg 70%
    20:00 -7°C° 0 mm 2 mps 651 mmHg 69%
    21:00 -7°C° 0 mm 2 mps 651 mmHg 68%
    22:00 -7°C° 0 mm 2 mps 651 mmHg 68%
    23:00 -8°C° 0 mm 2 mps 651 mmHg 68%

    8 December, Thursday

    Time Temperature Precipitation Wind Pressure Humidity
    00:00 -7°C° 0 mm 1 mps 650 mmHg 68%
    01:00 -7°C° 0 mm 1 mps 650 mmHg 68%
    02:00 -7°C° 0 mm 1 mps 650 mmHg 68%
    03:00 -7°C° 0 mm 1 mps 650 mmHg 68%
    04:00 -7°C° 0 mm 1 mps 650 mmHg 68%
    05:00 -7°C° 0 mm 1 mps 651 mmHg 69%
    06:00 -7°C° 0 mm 1 mps 651 mmHg 69%
    07:00 -4°C° 0 mm 1 mps 652 mmHg 68%
    08:00 -3°C° 0 mm 1 mps 653 mmHg 68%
    09:00 -2°C° 0 mm 1 mps 654 mmHg 67%
    10:00 -3°C° 0 mm 2 mps 654 mmHg 67%
    11:00 -3°C° 0 mm 2 mps 654 mmHg 67%
    12:00 -2°C° 0 mm 3 mps 655 mmHg 67%
    13:00 -4°C° 0 mm 3 mps 654 mmHg 68%
    14:00 -3°C° 0 mm 2 mps 654 mmHg 69%
    15:00 -4°C° 0 mm 2 mps 654 mmHg 70%
    16:00 -6°C° 0 mm 2 mps 654 mmHg 74%
    17:00 -8°C° 0 mm 1 mps 653 mmHg 77%
    18:00 -11°C° 0 mm 1 mps 652 mmHg 80%
    19:00 -11°C° 0 mm 1 mps 653 mmHg 80%
    20:00 -10°C° 0 mm 1 mps 653 mmHg 80%
    21:00 -10°C° 0 mm 1 mps 653 mmHg 79%
    22:00 -10°C° 0 mm 1 mps 654 mmHg 79%
    23:00 -9°C° 0 mm 1 mps 654 mmHg 79%

    9 December, Friday

    Time Temperature Precipitation Wind Pressure Humidity
    00:00 -9°C° 0 mm 1 mps 654 mmHg 79%
    01:00 -9°C° 0 mm 1 mps 654 mmHg 79%
    02:00 -8°C° 0 mm 1 mps 654 mmHg 79%
    03:00 -8°C° 0 mm 1 mps 653 mmHg 79%
    04:00 -8°C° 0 mm 1 mps 653 mmHg 79%
    05:00 -8°C° 0 mm 1 mps 653 mmHg 79%
    06:00 -8°C° 0 mm 1 mps 654 mmHg 79%
    07:00 -7°C° 0 mm 1 mps 654 mmHg 77%
    08:00 -7°C° 0 mm 0 mps 655 mmHg 75%
    09:00 -6°C° 0 mm 0 mps 655 mmHg 74%
    10:00 -4°C° 0 mm 1 mps 655 mmHg 72%
    11:00 -3°C° 0 mm 1 mps 655 mmHg 70%
    12:00 -2°C° 0 mm 1 mps 654 mmHg 68%
    13:00 -2°C° 0 mm 1 mps 654 mmHg 70%
    14:00 -2°C° 0 mm 1 mps 654 mmHg 71%
    15:00 -2°C° 0 mm 1 mps 653 mmHg 72%
    16:00 -4°C° 0 mm 1 mps 653 mmHg 75%
    17:00 -8°C° 0 mm 1 mps 652 mmHg 78%
    18:00 -10°C° 0 mm 1 mps 651 mmHg 81%
    19:00 -10°C° 0 mm 1 mps 651 mmHg 80%
    20:00 -9°C° 0 mm 1 mps 652 mmHg 79%
    21:00 -9°C° 0 mm 1 mps 652 mmHg 78%
    22:00 -9°C° 0 mm 1 mps 651 mmHg 77%
    23:00 -8°C° 0 mm 1 mps 651 mmHg 76%
    Show more